sat.trackr.live / text

‹ back to catalog

STARLINK-33710

NORAD 63434 · 2025-069B

PAYLOAD ACTIVE UNKNOWN

§ Identity

Operator
Country
US
Launch date
2025-04-04
Launch site
AFWTR
Launch vehicle
Mass (kg)
RCS (m²)

Purposes: comms

External: N2YO · Heavens-Above · Gunter

§ Orbital elements

Epoch: 2026-09-20T10:10:22.380096Z

Period
93.85 min
Inclination
53.1602°
Eccentricity
0.0001351
Mean motion
15.34410443 rev/d
Perigee alt
461.7 km
Apogee alt
463.6 km
Semi-major
6,840.8 km
B*
3.7375e-4
RAAN
308.4094°
Arg perigee
82.3191°
Mean anomaly
277.7965°
Rev number
8,335

§ Raw data

STARLINK-337101 63434U 25069B   26263.42387014  .00012276  00000+0  37375-3 0  99952 63434  53.1602 308.4094 0001351  82.3191 277.7965 15.34410443 83352

JSON: /api/v1/satellites/63434 · /tle

For live sub-satellite position, see the globe view (requires WebGL).

§ Visibility from observer

Set your observer location to see the next 7 days of passes ≥ 10°. The values pass through the URL so the page stays shareable.

No JS? Fill the form by hand. The geolocation button needs JavaScript.